Home > Weather > Uroševac > Past weeks

Flag for Kosovo Past Weather in Uroševac, Kosovo — Yesterday and Last 2 Weeks

Now
93 °F

Sunny.


Feels Like: 93 °F
Forecast: 60 / 91 °F
Wind: 9 mph from Northeast

Location: Skopje-Petrovec

Current Time: Jul 23, 2016 at 6:56:39 PM

Latest Report: Jul 23, 2016 at 6:30 PM


Visibility: 10 mi

Pressure: 29.95 "Hg (28.07 "Hg at 582m altitude)

Humidity: 34%

Dew Point: 61 °F

Location of UroševacLocation

Past Weather in Uroševac — Graph

°F

Uroševac Temperature Yesterday

Maximum temperature yesterday: 91 °F (at 5:30 PM)
Minimum temperature yesterday: 59 °F (at 4:30 AM)
Average temperature yesterday: 77 °F

High & Low Weather Summary for the Past Weeks

 TemperatureHumidityPressure
High99 °F (Jul 14, 3:30 PM)94% (Jul 16, 1:00 AM)30.12 "Hg (Jul 16, 1:00 AM)
Low54 °F (Jul 9, 4:00 AM)19% (Jul 12, 6:30 PM)29.71 "Hg (Jul 14, 4:00 PM)
Average75 °F55%29.97 "Hg
* Reported Jul 8 5:00 PM — Jul 23 5:30 PM, Uroševac, Weather by CustomWeather, © 2016

Note: Actual official high and low records may vary slightly from our data, if they occured in-between our weather recording intervals... More about our weather records

Advertising

Uroševac Weather History for the Previous 24 Hours

Scroll right to see more
 ConditionsComfort  
Time TempWeatherWind HumidityBarometerVisibility
5:30 PM
Sat, Jul 23
95 °FSunny.2 mph32%29.95 "Hg10 mi
5:00 PM95 °FPassing clouds.5 mph32%29.95 "HgN/A
4:30 PM95 °FPassing clouds.5 mph30%29.95 "HgN/A
4:00 PM95 °FPassing clouds.5 mph30%29.95 "HgN/A
3:30 PM93 °FPassing clouds.2 mph32%29.98 "HgN/A
3:00 PM93 °FPassing clouds.2 mph32%29.98 "HgN/A
2:30 PM93 °FPassing clouds.2 mph32%29.98 "HgN/A
2:00 PM93 °FPassing clouds.2 mph32%29.98 "HgN/A
1:30 PM91 °FSunny.2 mph32%30.01 "Hg10 mi
1:00 PM90 °FSunny.2 mph36%30.01 "Hg10 mi
12:30 PM88 °FSunny.2 mph38%30.01 "Hg10 mi
12:00 PM86 °FSunny.2 mph40%30.04 "Hg10 mi
11:30 AM86 °FSunny.No wind40%30.04 "Hg10 mi
11:00 AM82 °FSunny.No wind42%30.04 "Hg10 mi
10:00 AM79 °FSunny.No wind48%30.04 "Hg10 mi
9:00 AM75 °FSunny.No wind54%30.07 "Hg10 mi
8:30 AM73 °FSunny.No wind53%30.07 "Hg10 mi
8:00 AM72 °FSunny.No wind57%30.07 "Hg10 mi
7:30 AM68 °FSunny.No wind64%30.04 "Hg10 mi
7:00 AM66 °FSunny.No wind68%30.04 "Hg10 mi
6:30 AM64 °FSunny.No wind73%30.04 "Hg10 mi
6:00 AM63 °FClear.1 mph73%30.04 "Hg10 mi
5:00 AM63 °FClear.2 mph73%30.04 "Hg10 mi
4:30 AM61 °FClear.2 mph83%30.04 "Hg10 mi
4:00 AM64 °FClear.2 mph73%30.04 "Hg10 mi
3:00 AM64 °FClear.2 mph73%30.04 "Hg10 mi
2:30 AM64 °FClear.1 mph78%30.04 "Hg10 mi
1:30 AM64 °FClear.No wind78%30.04 "Hg10 mi
1:00 AM64 °FClear.No wind78%30.04 "Hg10 mi
12:30 AM66 °FClear.No wind73%30.04 "Hg10 mi
12:00 AM70 °FClear.2 mph64%30.04 "Hg10 mi
11:30 PM
Fri, Jul 22
68 °FClear.No wind73%30.01 "Hg10 mi
11:00 PM68 °FClear.No wind73%30.01 "Hg10 mi
10:30 PM70 °FClear.No wind69%30.01 "Hg10 mi
10:00 PM75 °FClear.3 mph54%30.01 "Hg10 mi
9:30 PM77 °FClear.1 mph51%30.01 "Hg10 mi
9:00 PM79 °FSunny.3 mph45%29.98 "Hg10 mi
8:00 PM82 °FSunny.5 mph42%29.98 "Hg10 mi
7:30 PM88 °FSunny.3 mph33%29.98 "Hg10 mi
7:00 PM90 °FSunny.7 mph29%29.98 "Hg10 mi
6:30 PM90 °FSunny.6 mph27%29.98 "Hg10 mi
6:00 PM91 °FSunny.No wind28%29.98 "Hg10 mi
Weather by CustomWeather, © 2016

See weather overviewHow to use our weather pages